�������l�o���
Date,Time,MP-1(��Sv/h),MP-2(��Sv/h),MP-3(��Sv/h),MP-4(��Sv/h),MP-5(��Sv/h),MP-6(��Sv/h),MP-7(��Sv/h),MP-8(��Sv/h),����,����(m/s),���J
2020/08/18,00:00,0.699,1.001,0.634,1.222,0.882,0.398,0.691,0.647,�k��,2.6,��
2020/08/18,00:10,0.698,1.000,0.634,1.223,0.883,0.397,0.692,0.647,�k��,2.8,��
2020/08/18,00:20,0.699,1.000,0.633,1.222,0.885,0.397,0.693,0.646,���k��,3.0,��
2020/08/18,00:30,0.697,1.001,0.634,1.221,0.883,0.398,0.692,0.648,���k��,2.8,��
2020/08/18,00:40,0.698,1.001,0.634,1.221,0.883,0.397,0.692,0.646,�k��,3.0,��
2020/08/18,00:50,0.700,1.001,0.633,1.222,0.882,0.397,0.692,0.646,�k�k��,2.9,��
2020/08/18,01:00,0.699,1.002,0.634,1.221,0.882,0.397,0.693,0.646,�k�k��,3.1,��
2020/08/18,01:10,0.697,1.002,0.631,1.222,0.882,0.397,0.692,0.646,�k,2.3,��
2020/08/18,01:20,0.698,1.001,0.631,1.221,0.883,0.397,0.691,0.647,�k,2.3,��
2020/08/18,01:30,0.698,1.002,0.634,1.225,0.883,0.397,0.693,0.647,�k,2.0,��
2020/08/18,01:40,0.701,1.001,0.635,1.224,0.883,0.397,0.690,0.646,�k�k��,2.6,��
2020/08/18,01:50,0.699,1.002,0.634,1.225,0.883,0.397,0.691,0.648,�k�k��,2.6,��
2020/08/18,02:00,0.700,1.001,0.634,1.222,0.880,0.398,0.692,0.648,�k�k��,2.2,��
2020/08/18,02:10,0.699,1.001,0.634,1.223,0.883,0.398,0.691,0.646,�k�k��,1.7,��
2020/08/18,02:20,0.699,1.000,0.634,1.224,0.883,0.397,0.692,0.647,�k�k��,1.7,��
2020/08/18,02:30,0.700,1.001,0.634,1.224,0.883,0.397,0.693,0.646,�k�k��,1.2,��
2020/08/18,02:40,0.698,1.004,0.635,1.221,0.881,0.398,0.692,0.648,�k,1.7,��
2020/08/18,02:50,0.700,1.003,0.634,1.221,0.883,0.397,0.693,0.649,�k,2.0,��
2020/08/18,03:00,0.699,1.002,0.634,1.225,0.883,0.397,0.692,0.646,�k,2.3,��
2020/08/18,03:10,0.698,1.000,0.633,1.225,0.883,0.397,0.693,0.647,�k�k��,3.4,��
2020/08/18,03:20,0.698,1.002,0.634,1.224,0.884,0.398,0.691,0.647,�k,2.5,��
2020/08/18,03:30,0.699,1.002,0.634,1.222,0.883,0.397,0.691,0.648,�k,3.0,��
2020/08/18,03:40,0.700,1.001,0.633,1.222,0.884,0.395,0.692,0.647,�k�k��,3.5,��
2020/08/18,03:50,0.701,1.001,0.634,1.225,0.884,0.397,0.691,0.648,�k,3.6,��
2020/08/18,04:00,0.698,1.002,0.634,1.224,0.884,0.398,0.692,0.647,�k,4.6,��
2020/08/18,04:10,0.699,1.002,0.634,1.222,0.882,0.398,0.694,0.647,�k�k��,5.0,��
2020/08/18,04:20,0.700,1.002,0.634,1.225,0.882,0.397,0.693,0.647,�k,4.8,��
2020/08/18,04:30,0.699,1.002,0.634,1.223,0.884,0.397,0.692,0.647,�k�k��,4.0,��
2020/08/18,04:40,0.699,1.002,0.635,1.221,0.883,0.397,0.692,0.648,�k�k��,3.9,��
2020/08/18,04:50,0.700,1.004,0.635,1.225,0.882,0.398,0.693,0.649,�k�k��,3.6,��
2020/08/18,05:00,0.700,1.002,0.635,1.223,0.881,0.396,0.693,0.647,�k�k��,3.0,��
2020/08/18,05:10,0.701,0.999,0.634,1.223,0.882,0.395,0.692,0.648,�k,3.7,��
2020/08/18,05:20,0.698,1.002,0.634,1.223,0.880,0.397,0.693,0.647,�k�k��,3.4,��
2020/08/18,05:30,0.697,1.001,0.633,1.224,0.881,0.397,0.692,0.649,�k�k��,3.7,��
2020/08/18,05:40,0.700,1.002,0.634,1.222,0.881,0.396,0.691,0.648,�k,3.1,��
2020/08/18,05:50,0.698,1.002,0.634,1.221,0.882,0.396,0.692,0.648,�k�k��,3.7,��
2020/08/18,06:00,0.699,1.002,0.633,1.225,0.883,0.396,0.692,0.648,�k�k��,3.8,��
2020/08/18,06:10,0.699,1.003,0.634,1.223,0.883,0.396,0.693,0.647,�k,4.9,��
2020/08/18,06:20,0.700,1.002,0.633,1.224,0.881,0.396,0.693,0.648,�k�k��,5.0,��
2020/08/18,06:30,0.701,1.002,0.633,1.223,0.882,0.397,0.692,0.646,�k�k��,3.9,��
2020/08/18,06:40,0.698,1.002,0.633,1.223,0.883,0.396,0.693,0.648,�k�k��,3.1,��
2020/08/18,06:50,0.700,1.003,0.633,1.225,0.881,0.397,0.693,0.647,�k,2.5,��
2020/08/18,07:00,0.699,1.001,0.633,1.224,0.881,0.396,0.692,0.649,�k,2.3,��
2020/08/18,07:10,0.699,1.001,0.632,1.227,0.882,0.397,0.691,0.647,�k�k��,2.3,��
2020/08/18,07:20,0.700,1.002,0.633,1.222,0.879,0.397,0.693,0.647,�k�k��,2.2,��
2020/08/18,07:30,0.700,1.001,0.632,1.224,0.883,0.396,0.691,0.647,�k�k��,2.5,��
2020/08/18,07:40,0.698,1.004,0.633,1.220,0.882,0.395,0.692,0.647,�k��,3.4,��
2020/08/18,07:50,0.697,1.001,0.633,1.223,0.883,0.396,0.693,0.647,�k�k��,4.1,��
2020/08/18,08:00,0.699,0.999,0.633,1.221,0.881,0.396,0.693,0.648,�k�k��,3.6,��
2020/08/18,08:10,0.700,1.002,0.632,1.225,0.882,0.397,0.692,0.648,�k��,3.1,��
2020/08/18,08:20,0.700,1.000,0.633,1.224,0.882,0.398,0.692,0.649,�k�k��,2.8,��
2020/08/18,08:30,0.699,0.999,0.634,1.225,0.881,0.397,0.692,0.649,�k�k��,2.6,��
2020/08/18,08:40,0.700,0.998,0.633,1.223,0.882,0.397,0.691,0.648,�k�k��,3.3,��
2020/08/18,08:50,0.700,0.998,0.633,1.223,0.881,0.396,0.693,0.646,�k��,3.1,��
2020/08/18,09:00,0.699,0.997,0.631,1.224,0.880,0.397,0.692,0.647,�k��,4.5,��
2020/08/18,09:10,0.700,0.997,0.632,1.224,0.883,0.396,0.694,0.646,�k�k��,3.1,��
2020/08/18,09:20,0.699,0.996,0.631,1.224,0.880,0.395,0.692,0.646,�k��,4.1,��
2020/08/18,09:30,0.697,0.999,0.632,1.225,0.883,0.395,0.693,0.648,�k��,3.9,��
2020/08/18,09:40,0.699,0.998,0.632,1.224,0.881,0.395,0.693,0.646,�k��,3.4,��
2020/08/18,09:50,0.699,0.997,0.632,1.225,0.883,0.395,0.691,0.647,�k��,4.2,��
2020/08/18,10:00,0.698,0.997,0.634,1.227,0.885,0.394,0.691,0.645,�k�k��,4.5,��
2020/08/18,10:10,0.700,0.998,0.631,1.223,0.884,0.396,0.691,0.645,�k��,4.0,��
2020/08/18,10:20,0.699,0.997,0.631,1.226,0.884,0.396,0.691,0.647,���k��,4.7,��
2020/08/18,10:30,0.700,0.997,0.632,1.225,0.884,0.397,0.691,0.647,�k��,4.1,��
2020/08/18,10:40,0.697,0.999,0.632,1.227,0.885,0.395,0.691,0.647,�k��,4.0,��
2020/08/18,10:50,0.700,0.998,0.632,1.223,0.887,0.397,0.692,0.647,�k��,4.5,��
2020/08/18,11:00,0.700,0.996,0.634,1.224,0.886,0.396,0.693,0.648,�k��,3.9,��
2020/08/18,11:10,0.699,1.000,0.632,1.227,0.887,0.395,0.693,0.647,���k��,2.8,��
2020/08/18,11:20,0.701,1.001,0.633,1.229,0.885,0.396,0.690,0.645,�k��,2.8,��
2020/08/18,11:30,0.697,0.999,0.635,1.224,0.885,0.395,0.692,0.647,���k��,3.0,��
2020/08/18,11:40,0.699,1.003,0.635,1.226,0.885,0.395,0.693,0.646,���k��,3.2,��
2020/08/18,11:50,0.700,1.001,0.634,1.225,0.886,0.396,0.692,0.646,�k��,2.0,��
2020/08/18,12:00,0.701,1.005,0.633,1.226,0.885,0.395,0.694,0.646,�k��,3.0,��
2020/08/18,12:10,0.699,1.005,0.633,1.227,0.886,0.395,0.691,0.648,�k��,2.6,��
2020/08/18,12:20,0.699,1.002,0.633,1.226,0.889,0.397,0.693,0.649,���k��,2.5,��
2020/08/18,12:30,0.698,1.003,0.635,1.227,0.887,0.395,0.693,0.647,��,2.5,��
2020/08/18,12:40,0.699,1.004,0.633,1.226,0.887,0.397,0.693,0.647,��,2.6,��
2020/08/18,12:50,0.700,1.002,0.636,1.226,0.889,0.396,0.694,0.647,���쓌,2.6,��
2020/08/18,13:00,0.700,1.001,0.635,1.227,0.888,0.395,0.691,0.647,���k��,2.6,��
2020/08/18,13:10,0.702,1.002,0.634,1.226,0.889,0.397,0.693,0.647,���k��,2.3,��
2020/08/18,13:20,0.700,1.002,0.634,1.225,0.886,0.396,0.693,0.647,���k��,3.3,��
2020/08/18,13:30,0.700,1.000,0.634,1.227,0.889,0.397,0.692,0.649,���k��,2.8,��
2020/08/18,13:40,0.701,1.002,0.633,1.225,0.887,0.395,0.692,0.648,���k��,3.2,��
2020/08/18,13:50,0.700,1.003,0.634,1.228,0.888,0.397,0.693,0.648,���k��,3.1,��
2020/08/18,14:00,0.700,1.002,0.633,1.226,0.889,0.396,0.693,0.647,���k��,3.1,��
2020/08/18,14:10,0.701,1.001,0.635,1.225,0.889,0.395,0.692,0.650,���k��,3.0,��
2020/08/18,14:20,0.700,1.002,0.635,1.227,0.889,0.397,0.691,0.648,���k��,3.1,��
2020/08/18,14:30,0.700,1.003,0.634,1.230,0.888,0.397,0.692,0.650,���k��,3.1,��
2020/08/18,14:40,0.699,1.002,0.636,1.227,0.889,0.395,0.694,0.649,���k��,3.3,��
2020/08/18,14:50,0.701,1.002,0.635,1.227,0.890,0.397,0.691,0.648,���k��,2.6,��
2020/08/18,15:00,0.700,1.004,0.634,1.225,0.889,0.396,0.692,0.648,���k��,3.0,��
2020/08/18,15:10,0.702,1.005,0.633,1.225,0.887,0.395,0.695,0.647,��,2.2,��
2020/08/18,15:20,0.700,1.005,0.634,1.225,0.889,0.397,0.693,0.647,��,2.3,��
2020/08/18,15:30,0.702,1.004,0.635,1.226,0.890,0.397,0.694,0.649,���쓌,2.0,��
2020/08/18,15:40,0.701,1.008,0.633,1.225,0.890,0.396,0.695,0.650,���쓌,1.7,��
2020/08/18,15:50,0.699,1.006,0.634,1.224,0.889,0.396,0.693,0.647,��,1.9,��
2020/08/18,16:00,0.702,1.004,0.635,1.226,0.888,0.396,0.692,0.646,���쓌,2.3,��
2020/08/18,16:10,0.701,1.006,0.635,1.226,0.890,0.397,0.692,0.648,���쓌,2.0,��
2020/08/18,16:20,0.700,1.007,0.634,1.227,0.889,0.394,0.693,0.647,���쓌,1.9,��
2020/08/18,16:30,0.702,1.007,0.636,1.227,0.888,0.396,0.694,0.649,�쓌,2.3,��
2020/08/18,16:40,0.702,1.009,0.634,1.228,0.890,0.397,0.692,0.648,�쓌,3.1,��
2020/08/18,16:50,0.702,1.006,0.634,1.227,0.886,0.397,0.692,0.647,�쓌,2.8,��
2020/08/18,17:00,0.701,1.008,0.633,1.227,0.891,0.396,0.693,0.648,�쓌,2.6,��
2020/08/18,17:10,0.700,1.010,0.633,1.228,0.890,0.395,0.694,0.648,��,2.5,��
2020/08/18,17:20,0.700,1.008,0.634,1.227,0.889,0.397,0.693,0.647,���쓌,3.5,��
2020/08/18,17:30,0.702,1.007,0.634,1.227,0.887,0.396,0.692,0.646,�쓌,2.3,��
2020/08/18,17:40,0.703,1.008,0.634,1.227,0.890,0.396,0.693,0.648,���쓌,2.8,��
2020/08/18,17:50,0.701,1.007,0.635,1.227,0.888,0.397,0.693,0.647,�쓌,2.5,��
2020/08/18,18:00,0.700,1.006,0.632,1.225,0.888,0.398,0.691,0.646,�쓌,1.7,��
2020/08/18,18:10,0.702,1.005,0.634,1.226,0.888,0.397,0.694,0.647,���쓌,1.7,��
2020/08/18,18:20,0.702,1.007,0.634,1.226,0.887,0.396,0.693,0.646,���쓌,1.7,��
2020/08/18,18:30,0.701,1.007,0.632,1.225,0.890,0.397,0.693,0.648,���쓌,1.7,��
2020/08/18,18:40,0.702,1.009,0.633,1.226,0.889,0.397,0.691,0.649,��,1.4,��
2020/08/18,18:50,0.701,1.007,0.634,1.227,0.892,0.396,0.692,0.645,���쓌,1.4,��
2020/08/18,19:00,0.702,1.011,0.635,1.227,0.889,0.400,0.692,0.646,���쓌,1.5,��
2020/08/18,19:10,0.702,1.008,0.634,1.227,0.891,0.399,0.693,0.648,�쓌,1.5,��
2020/08/18,19:20,0.704,1.006,0.636,1.228,0.888,0.397,0.691,0.647,��,1.5,��
2020/08/18,19:30,0.703,1.008,0.634,1.229,0.890,0.398,0.692,0.648,�쓌,1.9,��
2020/08/18,19:40,0.703,1.007,0.636,1.230,0.889,0.397,0.694,0.647,���쓌,1.4,��
2020/08/18,19:50,0.702,1.009,0.636,1.226,0.890,0.398,0.693,0.646,�쓌,1.2,��
2020/08/18,20:00,0.702,1.013,0.637,1.226,0.891,0.397,0.692,0.647,��쓌,1.7,��
2020/08/18,20:10,0.704,1.010,0.636,1.228,0.887,0.397,0.694,0.647,���쓌,1.2,��
2020/08/18,20:20,0.701,1.010,0.635,1.226,0.890,0.397,0.694,0.648,�쓌,2.0,��
2020/08/18,20:30,0.701,1.011,0.636,1.228,0.890,0.398,0.691,0.647,�쓌,1.9,��
2020/08/18,20:40,0.702,1.010,0.636,1.229,0.890,0.397,0.692,0.649,���쓌,2.8,��
2020/08/18,20:50,0.704,1.010,0.635,1.229,0.890,0.398,0.693,0.648,�쓌,1.5,��
2020/08/18,21:00,0.701,1.008,0.637,1.230,0.891,0.397,0.693,0.648,�쓌,2.2,��
2020/08/18,21:10,0.702,1.008,0.636,1.227,0.890,0.399,0.693,0.649,�쓌,1.7,��
2020/08/18,21:20,0.701,1.011,0.635,1.227,0.889,0.396,0.692,0.647,�쓌,2.3,��
2020/08/18,21:30,0.701,1.012,0.635,1.228,0.889,0.397,0.693,0.649,�쓌,1.7,��
2020/08/18,21:40,0.702,1.008,0.634,1.228,0.890,0.397,0.694,0.647,�쓌,1.2,��
2020/08/18,21:50,0.698,1.010,0.635,1.229,0.890,0.397,0.693,0.648,�쓌,1.7,��
2020/08/18,22:00,0.702,1.008,0.636,1.229,0.891,0.396,0.692,0.649,��쓌,1.9,��
2020/08/18,22:10,0.703,1.009,0.635,1.230,0.890,0.397,0.693,0.648,��쓌,2.0,��
2020/08/18,22:20,0.701,1.009,0.636,1.231,0.890,0.398,0.694,0.647,��쓌,1.7,��
2020/08/18,22:30,0.704,1.010,0.633,1.227,0.890,0.397,0.693,0.648,�쓌,1.2,��
2020/08/18,22:40,0.701,1.012,0.636,1.230,0.888,0.397,0.693,0.648,��쓌,1.7,��
2020/08/18,22:50,0.700,1.010,0.634,1.228,0.889,0.398,0.691,0.649,�쓌,2.3,��
2020/08/18,23:00,0.700,1.012,0.635,1.227,0.891,0.398,0.692,0.647,��쓌,1.4,��
2020/08/18,23:10,0.702,1.008,0.636,1.228,0.888,0.398,0.692,0.648,�쓌,2.0,��
2020/08/18,23:20,0.702,1.008,0.636,1.229,0.890,0.396,0.691,0.649,��쓌,1.7,��
2020/08/18,23:30,0.700,1.008,0.633,1.228,0.888,0.398,0.693,0.648,�쓌,1.4,��
2020/08/18,23:40,0.702,1.009,0.635,1.230,0.889,0.398,0.692,0.647,��쓌,2.0,��
2020/08/18,23:50,0.699,1.010,0.634,1.228,0.887,0.396,0.692,0.648,��쐼,1.4,��
